Location: Tuscaloosa
(33.2100°N, 87.5400°W)
Time: 10:16:43
(UTC-05:00)

Daily predictions for brighter satellites

Satellite Brightness Start Highest point End
(mag) Time Altitude Azimuth Time Altitude Azimuth Time Altitude Azimuth
SL-16 R/B 4.1 20:10:53 10° NNE 20:13:45 14° NE 20:16:37 10° E
SeaSat 1 2.8 20:09:51 10° NNE 20:14:47 75° WNW 20:19:41 10° SSW
CZ-4 R/B 4.4 20:14:30 10° WSW 20:16:04 12° W 20:17:39 10° WNW
Nadezhda 1 Rocket 4.1 20:12:53 10° N 20:19:11 64° E 20:25:30 10° SSE
Cosmos 1500 3.1 20:15:33 10° N 20:19:18 78° E 20:23:01 10° S
GOES 2 Rocket 4.4 20:17:09 10° SSW 20:20:17 20° SSE 20:23:20 10° ESE
H-2A R/B 3.3 20:16:50 10° ESE 20:20:39 23° ENE 20:24:34 10° NNE
COSMOS 2428 3.3 20:18:04 10° NNW 20:23:43 61° WSW 20:29:19 10° S
Sich 1 Rocket 3.8 20:19:29 10° N 20:23:49 50° E 20:28:08 10° SSE
Okean 1-7 3.3 20:21:22 10° S 20:25:43 74° W 20:30:07 10° N
FREGAT/IRIS 3.3 20:23:19 10° S 20:26:03 50° W 20:28:49 10° NNW
Cosmos 1709 Rocket 4.2 20:20:12 10° SSE 20:26:04 50° E 20:32:02 10° NNE
Cosmos 2082 3.7 20:22:23 10° S 20:27:52 59° ESE 20:33:23 10° NNE
Cosmos 1302 Rocket 4.0 20:23:43 10° S 20:28:56 75° ESE 20:34:12 10° NNE
Cosmos 1908 Rocket 4.1 20:24:50 10° NNW 20:29:06 61° W 20:33:22 10° S
Cosmos 2221 Rocket 3.6 20:26:21 10° S 20:30:40 58° E 20:35:00 10° NNE
Cosmos 2227 Rocket 2.4 20:27:26 10° SSW 20:33:05 78° WNW 20:38:46 10° NNE
BREEZE-M DEB (TANK) 4.3 20:31:48 10° W 20:33:44 20° NNW 20:35:40 10° NNE
Cosmos 1745 Rocket 4.4 20:27:42 10° SSW 20:33:46 68° W 20:39:54 10° N
Milstar 3 Cent rocket 3.9 20:19:44 10° W 20:34:31 57° SSW 20:41:08 12° ESE
USA 215 3.7 20:28:30 10° ESE 20:34:50 54° NE 20:41:10 10° NNW
Gblst 52 Del rocket 4.3 20:31:15 10° SW 20:36:48 76° NW 20:42:20 10° NE
SPOT 3 Rocket 3.6 20:31:54 10° SSE 20:37:02 87° WSW 20:42:13 10° NNW
CZ-4C R/B 2.0 20:33:47 10° SSW 20:38:36 86° WNW 20:44:10 10° NNE
USA 186 1.4 20:37:11 10° S 20:39:47 75° WSW 20:42:36 10° NNW
Cosmos 1400 Rocket 2.7 20:37:58 10° S 20:41:56 83° E 20:45:52 10° N
Cosmos 1809 Rocket 4.4 20:35:54 10° S 20:42:03 77° E 20:48:15 10° N
EP 2 4.4 20:44:36 10° SSW 20:47:39 75° ESE 20:50:38 10° NNE
SL-08 ROCKET BODY 4.4 20:42:43 10° S 20:48:34 86° W 20:54:26 10° N
Cosmos 1980 3.7 20:44:58 10° NNW 20:50:41 87° ENE 20:56:08 11° SSE
Meteor 1-18 Rocket 4.2 20:45:55 10° S 20:51:32 73° E 20:57:17 10° NNE
Cosmos 2098 Rocket 3.5 20:47:45 10° SSE 20:51:48 49° E 20:56:57 10° NNE
Meteor 2-15 Rocket 4.4 20:46:59 10° N 20:53:07 79° E 20:59:11 10° S
MTI 4.0 20:50:13 10° NNE 20:53:13 43° E 20:55:43 14° S
Cosmos 1300 Rocket 4.5 20:50:02 10° NNE 20:53:54 31° E 20:56:14 19° SE
Resurs 1-3 3.8 20:50:24 14° SSE 20:54:06 56° ENE 20:58:24 10° N
SJ-6B 3.5 20:50:14 10° S 20:54:15 57° W 20:58:20 10° NNW
Cosmos 1782 Rocket 4.2 20:50:54 10° NNW 20:55:11 56° W 20:59:27 10° S
CZ-2C R/B 4.3 20:56:13 16° ESE 20:59:09 26° ENE 21:03:40 10° NNE
Cosmos 304 Rocket 4.4 20:55:15 11° SSE 20:59:15 33° E 21:03:31 10° NE
Tiangong 2 3.9 20:57:34 10° NNW 20:59:22 14° N 21:01:10 10° NE
Cosmos 44 Rocket 3.5 20:55:12 10° NW 20:59:59 65° WSW 21:03:55 14° SSE
Resurs 01 Rocket 1.9 20:56:51 17° SE 21:00:01 51° ENE 21:04:19 10° N
Okean 2 Rocket 3.1 20:55:57 10° N 21:00:29 72° E 21:04:17 14° SSE
Lacrosse 5 rocket 3.6 20:58:48 10° W 21:00:47 14° WSW 21:02:44 10° SSW
Okean 1 3.3 20:57:16 10° S 21:01:14 82° W 21:05:12 10° N
EO 1 Del DPAF 4.3 21:00:38 10° NE 21:03:48 25° E 21:04:28 24° ESE
Cosmos 2263 Rocket 3.8 21:04:36 14° E 21:04:36 14° E 21:07:07 10° ENE
Cosmos 2297 Rocket 3.7 21:00:11 10° SW 21:05:25 39° WNW 21:10:42 10° N
Cosmos 1315 Rocket 2.9 21:02:30 11° S 21:06:25 61° E 21:10:30 10° NNE
Cosmos 921 Rocket 3.0 21:04:05 10° S 21:08:35 82° ESE 21:13:05 10° NNE
Cosmos 2333 Rocket 4.2 21:06:53 10° NW 21:11:21 24° WSW 21:15:47 10° SSW
Cosmos 2237 Rocket 2.5 21:06:36 10° NNW 21:12:10 65° WSW 21:16:57 14° S
Cosmos 1346 Rocket 3.8 21:09:09 10° NNE 21:12:47 31° ENE 21:13:53 27° ESE
CZ-2C R/B 3.8 21:09:14 10° NE 21:13:41 24° E 21:14:48 22° ESE
Cosmos 2219 Rocket 4.4 21:13:47 10° NW 21:17:51 20° W 21:21:54 10° SSW
Cosmos 2151 Rocket 3.5 21:18:16 10° N 21:22:41 76° E 21:24:59 28° SSE
CRYOSAT 2 4.3 21:20:17 10° N 21:25:08 73° E 21:28:18 22° S
Cosmos 1674 Rocket 3.4 21:23:14 18° S 21:26:30 85° E 21:30:52 10° N
Cosmos 968 Rocket 4.3 21:23:07 10° N 21:27:52 35° ENE 21:29:27 28° ESE
Cosmos 1666 4.2 21:24:51 10° NNW 21:28:15 34° W 21:31:25 11° SSW
Cosmos 2227 4.5 21:27:15 22° SSE 21:30:42 47° ESE 21:36:11 10° NNE
Okean 3 4.3 21:26:49 10° SSW 21:30:50 50° W 21:34:54 10° N
BREEZE M DEB (TANK) 4.5 21:28:00 10° W 21:31:32 17° NW 21:33:15 10° N
ADEOS Rocket 3.4 21:23:55 10° NNE 21:31:35 68° ESE 21:37:59 13° S
ARGOS 3.4 21:27:52 17° S 21:32:00 66° WSW 21:37:22 10° NNW
Cosmos 1975 2.8 21:28:28 10° N 21:32:31 84° W 21:34:11 34° S
Cosmos 2074 Rocket 3.9 21:32:09 17° S 21:37:07 77° E 21:43:22 10° N
SL-08 RB Rocket 3.9 21:36:48 27° S 21:39:18 69° W 21:43:58 10° NNW
Cosmos 1743 3.5 21:36:18 10° NNW 21:40:05 49° W 21:41:58 26° SSW
Meteor 1-12 Rocket 4.3 21:36:00 10° N 21:41:47 68° E 21:44:13 36° SSE
Spot 2 Rocket 3.4 21:40:19 34° SSE 21:42:33 88° ENE 21:47:36 10° NNW
Aureole 3 4.3 21:41:25 10° NNE 21:44:25 29° ENE 21:44:25 29° ENE
Cosmos 2184 Rocket 3.9 21:42:47 19° S 21:47:20 89° E 21:53:32 10° N
Cosmos 1354 Rocket 4.1 21:43:48 10° N 21:49:01 62° ENE 21:50:21 46° SE
Cosmos 1340 2.5 21:48:33 10° N 21:52:18 75° ENE 21:52:18 75° ENE
Meteor 2-4 Rocket 3.7 21:49:32 21° SSW 21:53:08 76° W 21:58:32 10° N
Nadezhda 3 Rocket 4.4 21:52:10 10° N 21:58:14 45° E 21:59:31 40° ESE
SL-16 R/B 2.3 21:52:45 10° NNW 21:58:25 72° WSW 22:00:23 41° S
NOSS 3-3 (A) 3.9 21:53:01 10° SSW 21:58:49 79° WNW 22:05:10 10° NNE
NOSS 3-3 (C) 3.9 21:53:08 10° SSW 21:58:55 80° WNW 22:05:16 10° NNE
H-2A R/B 3.4 21:56:30 15° SSW 21:59:51 31° W 22:04:19 10° NW
ERS-1 Rocket 3.3 21:59:56 45° E 22:00:26 47° ENE 22:05:15 10° N
Mugunghwa Rocket 4.5 21:55:39 10° W 22:02:16 41° SSW 22:03:13 39° S
Cosmos 1503 Rocket 3.9 21:58:14 10° NNW 22:03:30 86° WSW 22:04:41 55° S
COSMOS 2455 2.8 21:57:38 10° NNW 22:03:41 79° ENE 22:05:16 51° SE
Cosmos 1610 Rocket 4.4 22:02:32 37° S 22:05:08 84° E 22:11:24 10° N
SL-24 DEB 4.4 22:00:56 10° NNE 22:05:27 55° E 22:05:27 55° E
Cosmos 2344 4.3 22:14:53 31° E 22:14:53 31° E 22:20:23 10° NE
MetOp-B 4.5 22:13:10 42° SSW 22:14:46 60° W 22:20:04 10° NNW
Landsat 7 3.9 22:16:55 61° ENE 22:16:55 61° ENE 22:21:28 10° N
Cosmos 1867 3.4 22:11:37 10° NNW 22:17:07 84° ENE 22:17:42 71° SE
Lacrosse 4 Rocket 3.9 22:15:27 10° NNE 22:17:21 13° NE 22:17:21 13° NE
USA 215 4.2 22:15:35 28° SSW 22:17:52 35° SW 22:23:47 10° WNW
SPOT 5 3.1 22:22:43 54° NE 22:22:43 54° NE 22:27:07 10° N
Cosmos 1975 Rocket 3.2 22:25:33 70° NNW 22:25:33 70° NNW 22:29:33 10° N
Cosmos 1066 Rocket 4.2 22:34:13 62° ENE 22:34:13 62° ENE 22:38:57 10° NNE
Tiangong 2 4.0 22:33:58 10° NW 22:35:08 18° NNW 22:35:08 18° NNW
Resurs 01 Rocket 4.4 22:35:35 10° WSW 22:36:44 11° W 22:37:53 10° WNW
CZ-2C R/B 4.4 22:37:16 28° SW 22:38:47 33° W 22:43:43 10° NNW
Meteor 1-23 Rocket 4.4 22:39:02 55° SW 22:40:02 66° W 22:45:37 10° N
Cosmos 1455 Rocket 4.2 22:38:07 10° N 22:41:04 38° NNE 22:41:04 38° NNE
SPOT 1/Viking Rocket 3.6 22:43:18 69° W 22:43:18 69° W 22:48:23 10° NNW
Terra 2.5 22:45:13 49° NNE 22:45:13 49° NNE 22:48:55 10° N
BREEZE-M DEB (TANK) 4.1 22:37:13 10° NW 22:44:59 69° WNW 22:44:59 69° WNW
Aurora 2 Rocket 4.5 22:37:27 10° WSW 22:46:20 47° S 22:46:20 47° S
Cosmos 2263 Rocket 2.6 22:46:11 45° WSW 22:47:32 58° WNW 22:53:01 10° NNE
ATLAS 2AS CENTAUR R/B 3.5 22:40:30 10° NNW 22:47:40 42° NE 22:49:03 38° E
DELTA 2 R/B (1) 3.9 22:44:49 10° WNW 22:50:21 59° NNE 22:50:39 58° NNE
Meteor 1-15 Rocket 4.2 22:46:15 10° N 22:52:06 80° W 22:52:06 80° W
CZ-2C R/B 3.9 22:48:50 10° N 22:53:58 38° WNW 22:56:19 26° WSW
IRAS Rocket 4.3 22:56:09 74° N 22:56:09 74° N 23:01:09 10° NNW
Cosmos 2218 Rocket 4.0 23:02:05 70° ENE 23:02:05 70° ENE 23:08:02 10° N
Cosmos 1943 3.4 23:01:29 10° NNW 23:06:19 66° N 23:06:19 66° N
Cosmos 1844 Rocket 4.4 23:10:22 22° NE 23:10:22 22° NE 23:12:30 10° NE
Cosmos 2341 Rocket 4.4 23:08:09 50° WSW 23:09:03 55° W 23:15:12 10° N
Cosmos 1959 Rocket 4.5 23:11:21 71° NNE 23:11:21 71° NNE 23:16:47 10° N
NOSS 3-4 (A) 4.1 23:40:38 10° NNW 23:47:45 60° ENE 23:47:51 60° ENE
NOSS 3-4 (C) 4.1 23:40:44 10° NNW 23:47:52 59° ENE 23:47:57 59° ENE
